TimeEDT,TemperatureF,Dew PointF,Humidity,Sea Level PressureIn,VisibilityMPH,Wind Direction,Wind SpeedMPH,Gust SpeedMPH,PrecipitationIn,Events,Conditions,WindDirDegrees,DateUTC
12:52 AM,63.0,62.1,97,29.70,9.0,Calm,Calm,-,N/A,,Overcast,0,2013-06-30 04:52:00
1:52 AM,63.0,61.0,93,29.70,9.0,Calm,Calm,-,N/A,,Overcast,0,2013-06-30 05:52:00
2:52 AM,63.0,61.0,93,29.71,9.0,Calm,Calm,-,N/A,,Overcast,0,2013-06-30 06:52:00
3:52 AM,62.1,60.1,93,29.72,10.0,Calm,Calm,-,N/A,,Overcast,0,2013-06-30 07:52:00
4:52 AM,62.1,61.0,96,29.74,7.0,Calm,Calm,-,N/A,,Overcast,0,2013-06-30 08:52:00
5:52 AM,62.1,61.0,96,29.75,8.0,Calm,Calm,-,N/A,,Mostly Cloudy,0,2013-06-30 09:52:00
6:52 AM,66.0,63.0,90,29.77,10.0,Calm,Calm,-,N/A,,Mostly Cloudy,0,2013-06-30 10:52:00
7:26 AM,69.8,64.4,83,29.79,10.0,North,4.6,-,N/A,,Scattered Clouds,350,2013-06-30 11:26:00
7:52 AM,70.0,64.0,81,29.80,10.0,Calm,Calm,-,N/A,,Mostly Cloudy,0,2013-06-30 11:52:00
8:05 AM,71.6,64.4,78,29.81,10.0,Calm,Calm,-,N/A,,Overcast,0,2013-06-30 12:05:00
8:33 AM,73.4,64.4,73,29.82,10.0,Calm,Calm,-,N/A,,Overcast,0,2013-06-30 12:33:00
8:52 AM,72.0,63.0,73,29.81,10.0,Calm,Calm,-,N/A,,Mostly Cloudy,0,2013-06-30 12:52:00
9:52 AM,75.0,60.1,60,29.82,10.0,WSW,3.5,-,N/A,,Scattered Clouds,250,2013-06-30 13:52:00
10:52 AM,78.1,59.0,52,29.83,10.0,Calm,Calm,-,N/A,,Scattered Clouds,0,2013-06-30 14:52:00
11:52 AM,77.0,59.0,54,29.83,10.0,Calm,Calm,-,N/A,,Scattered Clouds,0,2013-06-30 15:52:00
12:52 PM,80.1,60.1,50,29.83,10.0,NNW,5.8,-,N/A,,Mostly Cloudy,330,2013-06-30 16:52:00
1:52 PM,80.1,61.0,52,29.83,10.0,WNW,3.5,-,N/A,,Mostly Cloudy,300,2013-06-30 17:52:00
2:52 PM,82.0,60.1,47,29.83,10.0,Variable,3.5,-,N/A,,Scattered Clouds,0,2013-06-30 18:52:00
3:52 PM,82.9,61.0,47,29.83,10.0,Variable,4.6,-,N/A,,Mostly Cloudy,0,2013-06-30 19:52:00
4:52 PM,81.0,63.0,54,29.84,10.0,Calm,Calm,-,N/A,,Mostly Cloudy,0,2013-06-30 20:52:00
5:52 PM,82.9,63.0,51,29.85,10.0,NNW,5.8,-,N/A,,Clear,340,2013-06-30 21:52:00
6:52 PM,80.1,63.0,56,29.86,10.0,Calm,Calm,-,N/A,,Clear,0,2013-06-30 22:52:00
7:52 PM,77.0,66.0,69,29.87,10.0,SSE,3.5,-,N/A,,Clear,160,2013-06-30 23:52:00
8:52 PM,73.0,68.0,84,29.89,10.0,Calm,Calm,-,N/A,,Mostly Cloudy,0,2013-07-01 00:52:00
9:52 PM,70.0,68.0,93,29.92,5.0,Calm,Calm,-,0.05,Rain,Rain,0,2013-07-01 01:52:00
10:52 PM,69.1,66.9,93,29.94,8.0,Calm,Calm,-,0.02,Rain,Light Rain,0,2013-07-01 02:52:00
11:52 PM,69.1,66.9,93,29.94,6.0,Calm,Calm,-,0.01,,Overcast,0,2013-07-01 03:52:00